Presure
178 192 195 205 225 228 219 198 239 176 250 136 205 249 219 203 231 215 203 202 200 200 200 213 202 196 195 191 196 187 266 229 219 199 205 234 232 211 229 211 206 209 205
187 147 81 172 219 214 162 224 181 251 194 215 242 234 233 222 241 219 222 195 198 202 202 193 206 192 185 213 240 257 235 230 205 218 240 218 213 216 213 215 199 197 198
189 204 182 207 209 211 218 215 223 239 276 251 237 219 225 233 235 227 206 205 202 196 191 217 193 234 203 201 249 238 239 238 232 217 215 222 209 184 208 212 192 192 185
154 194 190 195 223 174 180 196 219 237 223 249 230 225 208 212 225 246 233 231 226 199 209 237 188 215 237 232 189 201 216 185 191 236 171 221 205 200 207 188 182 188 179
195 184 176 199 209 202 195 202 193 234 285 236 229 219 213 201 193 191 198 204 205 206 215 217 228 236 238 179 236 187 197 173 194 219 214 209 200 193 177 181 183 179 180
181 191 203 172 193 195 197 199 193 215 213 231 237 214 211 204 199 185 189 191 223 216 214 214 220 186 193 198 187 215 201 205 210 198 213 181 164 181 189 167 170 165 160
181 174 180 175 220 226 198 205 194 191 221 207 226 220 212 212 202 190 193 191 219 218 213 201 186 175 172 184 183 215 211 203 211 218 180 188 184 180 189 178 171 164 165
194 165 165 172 189 209 192 204 190 195 179 204 225 226 207 208 205 194 192 193 227 211 203 190 179 179 188 192 212 211 203 188 205 195 186 184 182 170 172 171 167 165 165
187 192 187 211 186 202 213 191 185 178 207 256 225 224 212 202 195 197 196 227 218 208 190 171 212 164 186 210 192 207 177 190 190 180 163 181 166 162 161 160 157 171 170
175 179 181 181 206 197 203 148 199 195 195 209 244 220 212 207 202 214 186 225 196 191 186 169 175 171 212 175 200 195 177 191 180 164 155 170 161 155 166 152 161 161 153
183 196 197 187 153 166 182 191 205 202 206 201 246 210 211 205 198 184 206 221 201 183 179 173 169 168 197 210 169 190 178 196 164 163 170 165 169 163 165 159 176 181 189
205 206 193 193 191 195 204 207 205 194 180 198 199 223 216 204 201 196 193 216 211 169 166 185 175 187 185 185 204 195 164 173 163 164 165 171 157 157 163 170 156 175 170
187 182 192 202 181 173 185 210 203 196 227 200 202 222 220 208 205 193 191 213 185 181 170 179 164 202 203 171 189 171 169 175 163 167 164 163 162 171 160 156 167 164 164
196 188 197 199 181 183 216 206 208 203 202 194 212 204 219 210 207 207 201 214 203 180 177 180 171 185 192 175 169 176 164 177 170 163 163 163 165 174 183 173 175 169 170
196 191 202 189 175 195 194 204 215 209 160 238 225 213 217 214 205 191 237 206 199 187 170 171 164 178 165 171 172 169 168 165 164 165 165 171 169 172 188 174 177 162 164
204 206 200 202 196 171 184 213 206 177 213 242 220 230 228 204 201 210 217 212 210 190 177 175 178 162 178 172 173 165 165 165 171 167 184 170 173 175 163 180 163 165 156
206 203 202 201 205 217 213 178 204 204 218 233 219 227 236 206 195 206 188 214 194 191 179 167 172 177 167 168 166 171 160 164 170 166 166 167 176 181 174 168 175 169 162
202 195 207 198 204 215 206 203 204 165 218 221 235 233 228 203 203 191 216 205 236 191 179 166 177 174 166 181 167 164 171 173 170 170 180 171 163 172 175 173 178 162 131
201 206 208 203 208 196 189 197 197 204 218 236 228 239 215 205 203 218 218 216 230 194 177 169 178 170 169 172 171 171 172 148 173 175 172 177 162 181 174 168 166 168 183
184 207 200 198 203 192 196 192 171 206 218 241 225 240 215 202 195 203 205 217 216 206 187 179 180 171 170 167 169 170 170 172 176 165 161 170 175 166 162 173 186 176 189
218 226 202 193 191 215 195 197 144 187 209 248 224 238 216 200 195 209 202 221 220 200 200 172 175 179 175 173 169 172 175 172 174 165 171 168 165 168 172 172 182 176 170
214 211 204 205 205 212 189 175 205 219 219 226 246 245 216 203 202 194 200 214 221 197 194 187 178 169 180 180 175 161 162 167 171 164 171 167 180 179 150 186 171 162 184
122 131 212 185 204 211 207 211 223 185 188 223 246 242 225 203 196 194 202 202 220 224 191 208 193 179 170 171 182 180 171 165 169 172 169 178 175 177 185 168 168 189 192
125 125 200 209 205 212 214 198 184 191 178 195 216 269 222 211 200 192 194 196 201 214 229 196 191 183 187 179 177 179 182 180 176 175 180 177 176 186 183 179 190 194 183
212 213 186 213 211 230 204 196 190 203 188 202 202 226 232 214 201 195 194 193 193 197 196 212 212 202 190 185 175 182 190 191 191 189 183 182 182 182 181 194 202 198 192
125 220 213 209 215 248 205 215 180 164 205 210 207 226 240 212 203 194 195 193 212 204 193 193 191 230 222 213 193 195 191 191 191 191 191 190 194 202 200 198 191 184 185
Wind_Speed
55 55 52 49 50 43 43 40 43 48 32 33 35 26 45 50 59 62 58 50 42 43 42 44 45 47 57 62 57 57 31 37 38 42 39 28 22 25 17 27 24 20 17
58 45 26 37 44 40 35 42 36 36 47 27 26 33 37 47 37 56 57 42 50 48 48 44 42 52 59 46 38 29 35 37 41 36 22 26 26 22 20 21 22 18 15
58 53 56 44 42 41 37 42 43 34 25 25 26 34 29 29 33 41 56 55 57 44 41 54 45 46 44 37 31 32 32 29 28 26 24 23 17 29 16 16 21 15 16
51 50 51 43 43 43 43 40 41 32 32 26 25 25 36 35 32 29 36 33 38 49 51 35 42 44 33 32 38 30 26 30 28 21 36 15 18 14 8 16 19 17 20
53 53 47 48 42 41 37 36 38 31 23 29 25 27 33 41 37 36 32 35 37 39 35 33 27 28 27 32 25 31 27 33 28 16 16 15 16 16 25 20 17 18 20
55 53 52 47 43 43 36 40 40 33 37 31 27 31 35 40 38 37 33 34 29 30 29 27 27 27 29 26 29 19 23 16 19 21 18 24 34 20 14 28 23 24 30
57 52 54 50 40 34 37 32 42 41 41 36 34 33 35 34 36 35 36 35 32 30 27 25 28 30 31 31 25 19 17 17 20 17 28 21 17 18 14 17 23 27 29
57 57 50 53 43 32 35 33 47 48 40 39 39 33 36 34 32 33 35 33 33 29 27 30 30 31 31 26 19 16 15 18 18 17 19 16 18 24 23 23 27 30 33
52 58 56 44 47 33 30 49 54 42 46 34 39 37 36 35 34 35 33 32 30 29 31 32 24 29 28 24 18 18 23 20 18 20 29 18 27 29 31 33 35 36 39
63 61 60 51 39 36 39 51 56 56 49 42 42 38 37 36 33 33 33 31 30 33 33 32 33 31 27 34 18 20 27 18 23 31 39 27 32 37 32 40 40 41 43
63 63 53 57 47 54 47 47 42 54 50 46 38 40 40 38 35 40 34 32 34 36 35 33 33 33 28 26 27 23 25 17 33 32 28 28 30 35 39 41 37 41 36
61 58 63 57 54 52 42 40 41 51 42 48 42 42 42 42 37 33 36 36 36 37 35 36 38 34 33 32 23 22 31 31 33 34 34 34 34 38 42 46 44 45 48
64 61 59 53 56 55 49 43 39 50 39 49 45 40 42 44 40 39 37 40 45 39 40 40 38 35 34 32 27 31 33 34 34 35 36 38 40 41 44 45 43 54 54
66 59 59 57 56 56 52 41 43 43 47 47 46 43 43 44 43 36 42 43 45 43 45 44 43 37 37 35 33 31 36 35 38 39 40 42 45 48 45 48 49 56 58
69 63 61 57 58 53 48 42 43 43 39 41 44 45 45 45 40 43 42 49 46 44 46 45 41 42 40 35 32 37 40 41 40 42 44 48 48 49 47 51 51 56 58
70 64 61 60 59 57 43 42 42 40 41 38 41 45 47 46 42 39 44 49 55 51 51 51 48 43 43 38 40 42 44 45 46 45 49 48 50 50 51 51 55 61 55
67 63 59 57 55 49 44 45 42 41 41 36 39 44 47 48 46 40 47 45 49 49 52 46 51 52 47 46 45 48 41 46 48 48 49 49 50 47 49 54 60 63 64
66 60 58 55 49 45 46 44 44 47 43 42 43 45 46 49 44 47 50 48 54 55 52 48 53 54 48 53 50 47 52 53 51 51 55 52 51 54 57 60 63 62 48
64 58 55 54 47 45 50 48 46 43 43 37 42 45 47 46 43 43 47 49 52 56 55 54 59 55 52 55 55 55 57 41 59 57 53 55 51 60 58 57 64 62 74
50 58 60 57 50 51 51 50 50 44 44 39 44 47 49 47 45 43 44 48 55 58 58 60 62 58 55 52 56 61 61 64 65 45 48 63 65 56 55 70 76 74 79
61 59 60 58 55 50 46 52 38 47 42 39 46 47 51 49 47 42 44 46 58 57 60 52 57 62 61 65 61 67 70 65 64 57 62 57 58 64 73 71 80 74 63
61 59 60 59 51 51 56 38 52 47 45 40 40 46 52 49 48 45 46 45 56 60 60 63 63 54 62 68 72 54 56 62 69 55 66 59 76 79 51 85 68 57 85
34 31 59 46 52 50 52 46 43 47 46 42 41 46 53 51 52 48 47 46 50 60 56 63 64 64 60 64 74 78 76 63 70 74 63 77 73 78 85 63 67 87 88
44 39 58 58 54 51 49 29 56 57 48 50 46 43 57 54 52 52 48 47 48 51 57 61 62 65 68 70 73 78 82 84 80 78 87 81 80 89 87 81 91 91 73
67 64 58 61 56 58 45 53 62 55 56 57 49 51 57 57 54 55 52 49 48 49 51 54 60 63 68 72 71 75 80 86 89 89 86 88 90 88 85 94 90 89 89
34 69 66 62 58 58 51 53 59 38 59 64 57 57 54 61 58 55 55 51 51 53 52 55 56 54 60 67 73 78 81 85 88 86 87 91 93 89 89 88 87 87 89
Wind_Direction
284 293 295 302 309 309 302 302 312 280 279 269 269 247 245 253 249 250 255 259 255 256 257 264 253 252 259 262 269 274 253 261 264 272 276 262 260 260 235 246 262 262 255
281 279 250 302 304 301 287 308 295 315 277 265 258 250 248 250 250 251 250 260 261 265 261 248 261 249 258 290 282 255 262 259 274 269 248 251 262 263 263 253 267 250 250
280 285 283 308 299 297 308 307 307 305 279 260 252 251 255 265 260 258 258 260 264 264 259 279 248 280 268 267 265 261 256 254 253 253 262 239 255 272 247 258 255 261 268
271 281 285 297 297 287 288 293 305 301 292 265 250 253 250 254 265 253 264 260 265 270 275 273 250 282 275 269 266 268 260 275 272 216 270 221 229 243 253 259 266 269 273
276 275 283 294 292 289 294 296 290 309 274 276 253 249 249 253 254 256 262 266 269 271 272 274 274 271 267 264 245 276 267 275 263 228 223 222 233 243 267 267 272 284 288
273 279 286 280 287 285 288 283 280 293 291 277 257 252 249 252 254 255 260 264 262 259 265 266 267 253 254 262 270 241 256 252 236 251 225 259 278 264 271 271 276 277 278
269 273 277 283 287 296 289 295 284 282 277 283 269 247 251 253 254 251 260 263 265 248 252 244 246 255 262 262 261 239 236 242 242 227 257 250 260 260 276 279 278 277 283
268 274 275 279 281 286 274 283 275 275 276 275 265 249 250 251 257 251 257 264 250 246 240 239 254 252 258 260 237 238 231 260 215 230 250 259 266 269 279 281 281 283 284
262 269 274 272 273 254 266 257 269 275 274 269 258 249 245 249 250 255 254 254 250 243 232 249 236 263 260 239 249 229 252 240 238 249 265 266 263 270 276 276 280 289 293
261 261 263 269 268 245 257 277 255 262 269 267 248 249 248 242 244 249 253 244 225 225 229 253 255 263 235 256 243 228 245 242 247 263 267 267 269 271 281 278 289 290 291
257 254 251 258 264 272 264 259 261 259 266 263 250 251 249 251 236 243 252 241 226 224 236 248 255 260 240 236 261 241 249 235 255 266 269 275 279 284 287 286 290 289 299
250 248 254 256 263 265 269 263 258 251 265 260 258 248 242 247 243 243 245 242 236 248 245 236 245 246 245 245 230 233 259 253 262 268 271 278 278 284 290 291 288 293 297
248 254 258 259 255 257 263 271 257 252 285 253 257 251 239 241 244 245 240 240 224 229 241 243 253 228 227 252 239 252 260 257 267 272 276 282 285 284 292 292 294 295 298
247 247 254 259 256 257 271 263 253 255 249 253 252 251 244 240 240 240 238 237 230 231 235 239 252 237 238 246 257 253 261 262 268 274 279 284 287 292 285 289 293 294 297
249 250 250 252 253 264 265 259 264 253 268 274 254 247 248 239 241 237 246 235 227 222 243 248 255 246 263 252 253 260 262 266 272 274 278 278 285 290 291 290 291 297 299
247 249 252 255 253 250 258 262 261 261 262 263 252 249 244 238 241 246 235 230 235 224 232 244 245 261 254 255 252 262 265 268 269 275 275 283 287 289 291 290 292 295 303
244 247 250 253 257 260 254 251 256 256 272 268 252 248 240 235 241 244 235 237 234 223 232 250 250 249 263 262 264 258 270 274 272 280 285 287 289 289 289 291 288 293 298
241 244 249 247 252 253 250 249 255 257 270 271 258 249 234 237 239 240 239 245 234 223 230 252 246 252 263 251 267 274 268 271 277 281 277 289 291 295 295 294 294 294 294
237 241 242 243 245 239 246 247 254 254 264 272 251 243 233 236 239 243 239 243 234 228 231 245 241 253 259 261 265 269 268 270 278 282 291 287 290 296 296 292 291 296 292
240 238 237 239 243 237 243 250 253 253 261 273 246 237 232 238 238 243 244 240 235 230 228 239 241 252 258 267 269 270 273 277 280 284 287 290 293 292 291 294 296 294 300
237 238 235 239 236 245 243 245 243 248 255 269 243 236 232 240 241 243 244 245 234 235 232 251 251 251 258 262 270 271 272 278 281 283 286 287 291 292 292 293 296 298 302
233 230 232 236 239 245 240 244 259 258 263 260 256 236 232 236 241 244 244 246 236 239 239 238 249 260 257 258 265 275 278 280 282 284 285 290 289 290 288 293 294 300 297
256 247 234 237 235 247 243 247 266 250 246 267 265 241 233 235 242 244 244 249 247 234 245 238 241 249 261 265 260 263 270 281 280 281 287 286 287 286 288 292 294 296 300
250 255 232 238 236 244 239 216 250 247 250 243 270 248 235 235 238 246 245 248 248 246 243 247 248 249 252 260 264 266 266 270 274 279 280 284 287 285 287 291 293 296 298
234 236 233 237 238 248 235 219 234 248 243 252 249 256 237 235 237 244 246 246 249 251 252 250 248 248 250 254 259 262 262 266 269 273 280 283 283 285 289 290 294 296 298
253 237 236 238 238 240 204 219 244 241 255 258 250 255 240 237 238 241 245 248 251 247 251 255 257 246 247 249 255 255 260 263 268 272 274 275 278 281 286 290 294 296 299